Simultaneous Nadir Overpasses (SNOs) Predictions

Prediction of SNOs between GOES-15 and FY3D Satellite Orbit:

Table of predicted SNOs for the next 14.0 days since TLE Epoch: 2/6/2021
Index Date Time (GOES-15) GOES-15 Lat,Lon FY3D Lat,Lon Distance(km) Time Diff (sec)
1 02/06/2021 21:44:49 -0.39,-127.35 0.59,-123.04 491.53 80
2 02/08/2021 10:08:56 0.43,-127.21 0.67,-128.20 112.92 80
3 02/09/2021 09:47:19 0.41,-127.16 -0.40,-123.62 404.44 80
4 02/10/2021 22:11:36 -0.44,-127.16 -0.85,-128.82 190.19 80
5 02/11/2021 21:49:59 -0.43,-127.11 0.22,-124.24 327.32 80
6 02/13/2021 10:14:06 0.46,-126.98 0.98,-129.42 277.16 80
7 02/14/2021 09:52:29 0.44,-126.93 -0.03,-124.83 240.12 80
8 02/15/2021 22:16:46 -0.47,-126.92 -1.15,-130.04 355.07 80
9 02/16/2021 21:55:09 -0.45,-126.88 -0.14,-125.45 162.30 80
10 02/18/2021 10:19:16 0.48,-126.74 1.34,-130.62 442.50 80
11 02/19/2021 09:57:39 0.47,-126.69 0.33,-126.03 74.30 80
